Weather History for Ahoskie, NC

Change the Weather History Date:

Thursday, March 21, 2013

  Actual Average (KEMV) Record (KEMV)
Temperature  
Mean Temperature 36 °F -  
Max Temperature 42 °F 59 °F 77 °F (2012)
Min Temperature 30 °F 34 °F 20 °F (1986)
Degree Days  
Heating Degree Days 29    
Moisture  
Dew Point 21 °F    
Average Humidity 59    
Maximum Humidity 88    
Minimum Humidity 27    
Precipitation  
Precipitation 0.00 in - - ()
Sea Level Pressure  
Sea Level Pressure 29.80 in    
Wind  
Wind Speed 4 mph (NNW)    
Max Wind Speed 20 mph    
Max Gust Speed 23 mph    
Visibility 10 miles    
Events Rain , Snow    
Averages and records for this station are not official NWS values.
T = Trace of Precipitation, MM = Missing Value Source: NWS Daily Summary

Daily Weather History Graph

Daily Weather History Graph

Search for Another Location

Airport:

Trip Planner

Search our weather history database for the weather conditions in past years. The results will help you decide how hot, cold, wet, or windy it might be!

Date:

Astronomy

Mar. 21, 2013 Rise Set
Actual Time 7:10 AM EDT 7:21 PM EDT
Civil Twilight 6:44 AM EDT 7:47 PM EDT
Nautical Twilight 6:14 AM EDT 8:17 PM EDT
Astronomical Twilight 5:44 AM EDT 8:47 PM EDT
Moon 1:57 PM EDT (3/21) 3:22 AM EDT (3/21)
Length of Visible Light 13h 02m
Length of Day
12h 11m
Waxing Gibbous, 68% of the Moon is Illuminated
Mar 21
Waxing Gibbous
Mar 27
Full
Apr 3
Last Quarter
Apr 10
New
Apr 18
First Quarter

Hourly Weather History & Observations

Time (EDT) Temp. Windchill Dew Point Humidity Pressure Visibility Wind Dir Wind Speed Gust Speed Precip Events Conditions
12:15 AM 35.4 °F - 27.1 °F 72% 29.80 in 10.0 mi Calm Calm - N/A   Clear
12:35 AM 35.2 °F - 26.2 °F 70% 29.79 in 10.0 mi Calm Calm - N/A   Clear
12:55 AM 34.2 °F 30.0 °F 26.4 °F 73% 29.79 in 10.0 mi SSE 4.6 mph - N/A   Clear
1:15 AM 35.1 °F 32.2 °F 27.1 °F 73% 29.78 in 10.0 mi SSE 3.5 mph - N/A   Clear
1:35 AM 32.5 °F 29.3 °F 27.1 °F 80% 29.77 in 10.0 mi SSE 3.5 mph - N/A   Clear
1:55 AM 32.2 °F 28.9 °F 27.1 °F 82% 29.76 in 10.0 mi South 3.5 mph - N/A   Clear
2:15 AM 32.5 °F - 27.1 °F 80% 29.75 in 10.0 mi Calm Calm - N/A   Clear
2:35 AM 32.5 °F - 27.5 °F 82% 29.73 in 10.0 mi Calm Calm - N/A   Clear
2:55 AM 31.1 °F - 26.6 °F 83% 29.73 in 10.0 mi Calm Calm - N/A   Clear
3:15 AM 30.2 °F - 26.2 °F 85% 29.73 in 10.0 mi Calm Calm - N/A   Scattered Clouds
3:35 AM 30.2 °F - 27.1 °F 88% 29.73 in 10.0 mi Calm Calm - N/A   Scattered Clouds
3:55 AM 30.2 °F - 26.4 °F 86% 29.73 in 10.0 mi Calm Calm - N/A   Scattered Clouds
4:15 AM 30.2 °F - 27.0 °F 88% 29.73 in 10.0 mi Calm Calm - N/A   Mostly Cloudy
4:35 AM 30.7 °F - 27.0 °F 86% 29.72 in 10.0 mi Calm Calm - N/A   Mostly Cloudy
4:55 AM 36.7 °F 34.1 °F 28.2 °F 71% 29.72 in 10.0 mi WNW 3.5 mph - N/A   Mostly Cloudy
5:15 AM 39.0 °F 36.8 °F 29.8 °F 70% 29.72 in 10.0 mi NW 3.5 mph - N/A   Mostly Cloudy
5:55 AM 42.3 °F 38.6 °F 32.4 °F 68% 29.71 in 10.0 mi NNW 5.8 mph - N/A   Scattered Clouds
6:15 AM 40.1 °F 38.0 °F 31.1 °F 70% 29.71 in 10.0 mi NNW 3.5 mph - N/A   Scattered Clouds
6:55 AM 38.5 °F 33.4 °F 25.5 °F 60% 29.73 in 10.0 mi NNW 6.9 mph - N/A   Clear
7:15 AM 37.6 °F 32.3 °F 25.2 °F 61% 29.73 in 10.0 mi NNW 6.9 mph - N/A   Clear
7:35 AM 36.7 °F 32.0 °F 25.2 °F 63% 29.74 in 10.0 mi North 5.8 mph - N/A   Clear
7:55 AM 37.6 °F 32.3 °F 26.6 °F 65% 29.74 in 10.0 mi North 6.9 mph - N/A   Clear
8:15 AM 37.6 °F 31.6 °F 26.6 °F 65% 29.74 in 10.0 mi North 8.1 mph - N/A   Clear
8:35 AM 37.9 °F 30.0 °F 26.2 °F 63% 29.73 in 10.0 mi North 12.7 mph 19.6 mph N/A   Clear
8:55 AM 38.7 °F 28.8 °F 26.1 °F 61% 29.74 in 10.0 mi North 19.6 mph 23.0 mph N/A   Clear
9:15 AM 39.0 °F 31.0 °F 26.1 °F 60% 29.74 in 10.0 mi North 13.8 mph 20.7 mph N/A   Clear
9:35 AM 39.7 °F 31.5 °F 25.9 °F 58% 29.75 in 10.0 mi North 15.0 mph - N/A   Scattered Clouds
9:55 AM 39.6 °F 32.1 °F 25.7 °F 58% 29.76 in 10.0 mi North 12.7 mph 18.4 mph N/A   Mostly Cloudy
10:15 AM 38.8 °F 33.8 °F 25.5 °F 59% 29.76 in 10.0 mi NNW 6.9 mph 17.3 mph N/A   Mostly Cloudy
10:35 AM 38.7 °F 32.4 °F 25.2 °F 58% 29.77 in 10.0 mi North 9.2 mph 20.7 mph N/A   Scattered Clouds
10:55 AM 37.6 °F 31.0 °F 25.0 °F 60% 29.78 in 10.0 mi NNW 9.2 mph 18.4 mph N/A   Mostly Cloudy
11:15 AM 37.6 °F 29.1 °F 25.7 °F 62% 29.78 in 10.0 mi North 13.8 mph 17.3 mph N/A   Mostly Cloudy
11:35 AM 37.2 °F 30.6 °F 25.9 °F 64% 29.78 in 10.0 mi North 9.2 mph 17.3 mph N/A   Mostly Cloudy
11:55 AM 35.2 °F 27.1 °F 26.4 °F 70% 29.79 in 10.0 mi NNW 11.5 mph 18.4 mph N/A   Mostly Cloudy
12:15 PM 35.1 °F 27.9 °F 26.6 °F 71% 29.80 in 10.0 mi NNW 9.2 mph - N/A   Overcast
12:35 PM 35.1 °F 27.4 °F 27.5 °F 74% 29.80 in 10.0 mi NNW 10.4 mph 16.1 mph N/A   Overcast
12:55 PM 35.1 °F 27.4 °F 26.6 °F 71% 29.80 in 10.0 mi North 10.4 mph - N/A   Overcast
1:15 PM 35.1 °F 26.9 °F 27.1 °F 73% 29.80 in 10.0 mi NNW 11.5 mph 16.1 mph N/A Snow Light Snow
1:35 PM 35.1 °F 29.3 °F 27.0 °F 72% 29.79 in 10.0 mi North 6.9 mph - N/A   Mostly Cloudy
1:55 PM 35.6 °F 30.7 °F 27.0 °F 71% 29.79 in 10.0 mi NNW 5.8 mph - N/A   Mostly Cloudy
2:15 PM 36.5 °F - 26.6 °F 67% 29.79 in 10.0 mi Calm Calm - N/A   Mostly Cloudy
2:35 PM 36.7 °F 34.1 °F 26.4 °F 66% 29.78 in 10.0 mi NNW 3.5 mph - N/A   Scattered Clouds
2:55 PM 35.4 °F 29.7 °F 28.0 °F 75% 29.78 in 10.0 mi North 6.9 mph - N/A Rain Light Rain
3:15 PM 36.5 °F - 28.2 °F 72% 29.78 in 10.0 mi Calm Calm - N/A Rain Light Rain
3:35 PM 36.5 °F 31.8 °F 29.1 °F 75% 29.78 in 10.0 mi North 5.8 mph - N/A Snow Light Snow
3:55 PM 37.9 °F - 29.1 °F 71% 29.77 in 10.0 mi Calm Calm - N/A   Mostly Cloudy
4:15 PM 41.5 °F 38.6 °F 25.3 °F 53% 29.77 in 10.0 mi WSW 4.6 mph - N/A   Mostly Cloudy
4:35 PM 39.2 °F 35.9 °F 20.3 °F 47% 29.77 in 10.0 mi NW 4.6 mph - N/A   Mostly Cloudy
4:55 PM 38.5 °F 35.0 °F 24.4 °F 57% 29.78 in 10.0 mi North 4.6 mph - N/A   Scattered Clouds
5:15 PM 39.7 °F 36.5 °F 24.1 °F 54% 29.78 in 10.0 mi North 4.6 mph - N/A   Scattered Clouds
5:35 PM 39.4 °F - 22.5 °F 51% 29.79 in 10.0 mi Calm Calm - N/A   Scattered Clouds
5:55 PM 42.8 °F 38.6 °F 15.6 °F 33% 29.80 in 10.0 mi WNW 6.9 mph - N/A   Mostly Cloudy
6:15 PM 40.1 °F 35.3 °F 9.3 °F 28% 29.81 in 10.0 mi NW 6.9 mph - N/A   Mostly Cloudy
6:35 PM 38.8 °F 35.4 °F 8.6 °F 29% 29.82 in 10.0 mi NW 4.6 mph - N/A   Mostly Cloudy
6:55 PM 38.3 °F 33.2 °F 7.9 °F 28% 29.83 in 10.0 mi WNW 6.9 mph - N/A   Scattered Clouds
7:15 PM 37.6 °F 31.6 °F 5.7 °F 27% 29.84 in 10.0 mi WNW 8.1 mph - N/A   Clear
7:35 PM 36.9 °F - 7.2 °F 29% 29.86 in 10.0 mi Calm Calm - N/A   Clear
7:55 PM 36.5 °F - 6.8 °F 29% 29.87 in 10.0 mi Calm Calm - N/A   Clear
8:15 PM 35.1 °F - 6.6 °F 31% 29.88 in 10.0 mi Calm Calm - N/A   Clear
8:35 PM 35.1 °F 32.2 °F 6.3 °F 30% 29.88 in 10.0 mi WNW 3.5 mph - N/A   Clear
8:55 PM 35.1 °F - 6.4 °F 30% 29.90 in 10.0 mi Calm Calm - N/A   Clear
9:15 PM 35.1 °F - 7.7 °F 32% 29.91 in 10.0 mi Calm Calm - N/A   Clear
9:35 PM 35.1 °F - 7.7 °F 32% 29.92 in 10.0 mi Calm Calm - N/A   Clear
9:55 PM 34.3 °F 31.4 °F 7.9 °F 33% 29.93 in 10.0 mi NW 3.5 mph - N/A   Clear
10:15 PM 33.1 °F - 6.6 °F 33% 29.93 in 10.0 mi Calm Calm - N/A   Clear
10:35 PM 32.5 °F - 6.4 °F 33% 29.94 in 10.0 mi Calm Calm - N/A   Clear
10:55 PM 32.5 °F 29.3 °F 7.2 °F 35% 29.94 in 10.0 mi NW 3.5 mph - N/A   Clear
11:15 PM 32.5 °F - 8.1 °F 36% 29.95 in 10.0 mi Calm Calm - N/A   Clear
11:35 PM 32.0 °F - 9.0 °F 38% 29.95 in 10.0 mi Calm Calm - N/A   Clear
11:55 PM 30.9 °F - 7.9 °F 38% 29.96 in 10.0 mi Calm Calm - N/A   Clear